Simultaneous Nadir Overpasses (SNOs) Predictions

Prediction of SNOs between NOAA-20 and AQUA Satellite Orbit:

Table of predicted SNOs for the next 14.0 days since TLE Epoch: 8/28/2020
Index Date (NOAA-20) Time (NOAA-20) Lat,Lon (NOAA-20) SZA (NOAA-20 ) Date (AQUA) Time (AQUA) Lat,Lon (AQUA) SZA (AQUA ) Distance(km) Time Diff (sec)
1 08/29/2020 22:12:46 -75.91, -94.58 91.38 08/29/2020 22:13:35 -75.91, -94.61 91.41 0.91 49
2 08/29/2020 23:03:08 76.91, 76.39 87.40 08/29/2020 23:02:40 76.91, 76.33 87.44 1.50 28
3 09/01/2020 14:29:32 -76.25, 22.37 90.89 09/01/2020 14:29:57 -76.25, 22.33 90.90 0.94 25
4 09/01/2020 15:19:55 77.19,-166.67 87.95 09/01/2020 15:19:03 77.18,-166.75 88.01 2.12 52
5 09/04/2020 05:58:53 66.33, -48.19 100.79 09/04/2020 06:00:06 66.18, -47.14 100.53 49.94 73
6 09/04/2020 06:46:17 -76.59, 139.37 90.39 09/04/2020 06:46:18 -76.59, 139.32 90.37 1.38 1
7 09/04/2020 07:34:45 81.04, -17.15 82.06 09/04/2020 07:33:32 81.40, -18.03 82.27 42.32 73
8 09/06/2020 22:12:47 75.56, 84.29 91.79 09/06/2020 22:13:40 75.57, 84.38 91.72 2.63 53
9 09/06/2020 23:03:03 -76.92,-103.57 89.87 09/06/2020 23:02:40 -76.91,-103.65 89.83 2.24 23
10 09/09/2020 14:29:30 76.04,-158.36 92.15 09/09/2020 14:29:59 76.05,-158.31 92.11 1.30 29
